Skip Page Navigation
NASA JPL Caltech
NASA Logo - Jet Propulsion Laboratory + View the NASA Portal
+ Center for Near-Earth Object Studies
JPL Home Earth Solar System Stars & Galaxies Technology
JPL Solar System Dynamics
BODIES ORBITS EPHEMERIDES TOOLS PHYSICAL DATA DISCOVERY FAQ SITE MAP
IMPORTANT: The SSD Announcement email list is now available. Major changes are coming in the near future, including possible hostname and/or URL changes. To be notified of such changes, subscribe to this email list.

Please visit this page for more details.


JPL Small-Body Database Browser
Search: [ help ]  
382659 (2002 TK61)
Classification: Main-belt Asteroid          SPK-ID: 2382659
Ephemeris | Orbit Diagram | Orbital Elements | Mission Design | Physical Parameters | Discovery Circumstances ]

[ show orbit diagram ]
Orbital Elements at Epoch 2458600.5 (2019-Apr-27.0) TDB
Reference: JPL 11 (heliocentric ecliptic J2000)
 Element Value Uncertainty (1-sigma)   Units 
e .08165494660135246 8.1504e-08  
a 2.915905906444096 4.0596e-08 au
q 2.677807765358835 2.3634e-07 au
i 11.49844638973441 7.1339e-06 deg
node 233.0601089330221 3.5014e-05 deg
peri 163.5262467402754 6.4381e-05 deg
M 93.62655482122844 5.0672e-05 deg
tp 2458127.506440274922
(2018-Jan-09.00644027)
0.00025572 TDB
period 1818.690026842899
4.98
3.798e-05
1.04e-07
d
yr
n .1979446715419291 4.1337e-09 deg/d
Q 3.154004047529357 4.391e-08 au
  Orbit Determination Parameters
   # obs. used (total)      248  
   data-arc span      6028 days (16.50 yr)  
   first obs. used      2002-10-03  
   last obs. used      2019-04-05  
   planetary ephem.      DE431  
   SB-pert. ephem.      SB431-N16  
   condition code      0  
   norm. resid. RMS      .55343  
   source      ORB  
   producer      Otto Matic  
   solution date      2019-Jul-13 17:05:05  

Additional Information
 Earth MOID = 1.68727 au 
 Jupiter MOID = 2.23439 au 
 T_jup = 3.247 
[ show covariance matrix ]

Ephemeris | Orbit Diagram | Orbital Elements | Mission Design | Physical Parameters | Discovery Circumstances ]

Physical Parameter Table
Parameter Symbol Value Units Sigma Reference Notes
absolute magnitude H 15.4   n/a MPO285628  

382659 (2002 TK61)          Discovered 2002-Oct-03 by CINEOS at Campo Imperatore
Reference: Last Updated: 2014-01-21

Alternate Designations
 2002 TK61 = 2007 TY411 
Ephemeris | Orbit Diagram | Orbital Elements | Mission Design | Physical Parameters | Discovery Circumstances ]
ABOUT SSD CREDITS/AWARDS PRIVACY/COPYRIGHT GLOSSARY LINKS
FirstGov
(server date/time)  
NASA Home Page
Site Manager:   Ryan S. Park
Webmaster  Alan B. Chamberlin